Wind_Speed
33 36 36 33 31 31 31 30 31 32 33 35 37 38 39 40 39 37 34 33 32 33 34 33 35 36 38 40 41 42 44 45 47 49 50 51 53 55 56 58 59 61 62
36 40 38 36 34 34 33 32 33 34 36 38 39 40 42 43 43 40 38 37 37 37 36 37 37 39 41 42 43 45 47 49 51 52 53 54 55 57 59 61 62 63 64
40 40 41 40 38 37 35 34 35 37 39 40 42 43 45 45 44 43 41 40 40 39 38 39 41 42 44 45 46 47 50 52 53 54 56 57 58 59 61 64 65 65 66
38 38 40 40 39 37 36 35 37 38 40 42 44 46 47 47 46 45 43 43 43 42 41 41 43 45 47 48 49 50 51 52 54 56 58 59 60 60 61 63 65 66 67
35 36 36 37 37 36 35 36 37 39 41 43 44 46 47 47 46 46 45 45 44 44 43 43 45 47 49 50 51 52 53 55 56 58 59 60 61 61 62 63 65 66 67
34 33 33 34 34 34 35 37 38 39 41 43 44 45 46 46 46 46 46 46 46 45 44 45 47 49 50 51 52 53 54 55 56 57 58 60 61 62 64 65 66 67 67
34 35 34 32 32 34 35 36 38 39 40 42 43 44 45 45 45 45 45 46 46 45 46 47 49 51 52 52 52 53 54 55 56 57 59 61 62 64 65 67 68 68 67
36 35 34 31 31 33 35 36 37 38 39 41 42 43 44 44 44 44 45 45 46 47 48 50 51 51 52 53 53 53 54 55 57 58 59 61 63 65 67 68 68 68 66
29 30 32 31 32 34 35 36 37 38 39 41 42 43 43 43 44 46 46 46 48 49 51 52 52 54 55 54 53 54 55 55 57 58 60 62 64 66 68 68 69 69 67
28 28 31 31 33 33 35 37 37 38 39 41 42 42 43 44 45 46 47 48 49 51 53 54 56 57 55 54 54 55 55 56 58 60 62 64 66 67 68 69 69 69 69
33 33 32 32 33 34 36 37 38 39 40 41 42 43 45 46 47 48 49 50 52 54 55 57 58 56 55 55 55 56 56 57 58 60 62 64 66 67 68 69 69 69 69
39 36 34 33 33 35 37 38 39 41 42 43 44 46 47 48 50 51 52 53 55 56 57 58 57 56 57 55 54 54 56 58 60 61 63 64 66 67 68 68 67 66 65
37 35 35 35 36 37 39 40 42 43 45 46 47 49 50 51 53 53 54 56 57 57 59 59 60 59 57 54 54 55 57 59 60 62 64 65 66 66 65 65 63 60 57
33 35 38 40 41 42 42 44 45 46 48 49 50 51 52 53 55 56 56 57 59 61 62 62 61 58 55 53 54 56 57 59 60 62 63 64 63 63 61 57 54 50 47
46 46 46 46 46 46 46 46 47 49 50 51 52 52 53 55 55 57 58 60 62 64 62 60 56 55 53 52 54 56 57 59 60 61 61 60 59 56 52 48 44 41 37
52 52 51 50 49 48 48 48 48 49 50 51 52 52 53 55 57 58 59 61 61 61 60 55 52 51 51 52 54 56 57 58 58 58 56 54 51 47 43 40 36 34 31
51 52 51 50 48 48 47 48 48 49 49 50 51 52 53 55 57 58 59 60 60 58 53 50 49 49 50 52 54 55 55 55 54 52 49 45 42 39 36 32 29 27 24
50 50 50 49 48 48 47 47 47 47 48 49 50 51 53 55 57 58 58 57 55 52 50 48 48 49 50 51 52 52 51 49 47 44 40 36 34 32 28 24 21 18 16
47 48 48 47 47 46 45 44 44 45 45 47 49 50 53 55 55 55 54 52 50 48 46 47 47 48 49 48 48 47 45 41 38 35 32 29 27 23 20 17 14 12 11
44 44 44 44 43 42 41 42 41 42 44 46 49 51 53 53 52 51 49 48 46 45 46 46 46 46 45 44 42 40 36 33 30 28 26 23 20 17 14 11 9 7 6
40 40 39 39 38 37 38 38 39 41 43 47 48 49 49 48 47 46 44 43 43 43 44 43 42 41 39 37 34 30 27 25 24 22 19 16 13 11 8 6 5 5 5
35 34 33 32 32 33 34 35 37 40 42 43 43 44 43 42 42 42 42 42 41 40 39 38 36 34 32 29 26 23 22 20 18 15 12 10 8 6 5 5 6 6 6
29 28 27 28 29 30 32 34 36 37 37 37 37 37 37 38 39 39 39 38 37 35 34 32 30 27 25 22 21 19 17 15 12 9 7 6 5 5 6 7 7 7 7
24 24 24 25 26 28 30 30 30 30 31 32 33 34 35 36 36 36 35 34 32 30 28 26 24 22 20 18 17 16 13 10 7 5 4 4 5 7 7 7 8 8 8
19 19 20 21 23 23 24 25 27 28 29 31 32 33 34 34 33 32 31 28 26 24 23 21 20 18 17 15 14 11 8 6 4 3 4 6 7 7 7 8 8 8 8
16 17 17 18 19 20 22 24 26 28 29 31 32 32 32 31 29 27 25 23 22 20 19 18 17 15 14 12 10 6 4 3 3 5 6 7 8 8 8 8 8 8 8
Wind_Direction
274 276 281 286 288 293 293 291 291 291 292 293 294 295 295 296 294 294 292 290 288 285 284 287 287 288 289 290 291 290 289 288 288 287 286 286 287 287 287 287 287 288 288
268 272 276 283 287 288 289 287 286 287 287 289 291 292 292 293 294 293 293 293 290 288 286 287 288 289 290 290 290 290 290 289 288 287 286 286 286 287 287 287 287 287 288
271 271 274 280 283 285 285 283 283 283 284 286 287 288 290 290 291 291 291 292 292 290 289 289 288 288 290 290 289 288 289 289 288 287 287 287 287 287 288 288 288 289 289
274 272 272 276 279 281 280 281 281 282 283 284 285 285 286 288 289 290 291 291 292 291 290 289 289 290 291 292 291 289 289 290 289 288 287 288 288 287 287 289 290 291 291
274 272 270 272 275 277 278 279 279 280 281 283 283 284 285 287 288 289 290 290 291 291 291 290 291 291 293 294 292 291 291 291 291 290 290 290 290 290 289 289 291 292 293
273 272 271 270 271 273 275 277 278 279 280 282 283 284 286 287 287 288 290 290 290 291 292 292 293 293 295 294 293 293 293 292 292 291 292 292 292 292 292 292 292 293 293
271 275 275 271 269 271 273 274 276 278 280 281 283 283 285 286 287 288 289 290 291 291 293 293 293 294 295 296 295 295 294 293 292 292 292 293 293 294 294 294 294 293 293
270 271 270 269 268 269 271 273 275 277 279 280 281 282 284 285 286 287 288 289 291 293 295 294 295 296 297 297 297 296 295 294 293 293 294 295 295 295 296 296 295 294 293
270 268 267 267 266 267 270 273 274 276 277 279 280 281 283 284 285 285 287 289 291 293 294 294 296 296 297 296 297 297 297 296 295 295 296 296 297 297 297 296 296 295 293
266 269 268 267 267 268 270 272 274 276 277 279 280 282 283 285 285 286 287 290 292 293 294 295 295 295 297 298 298 298 297 296 297 297 298 298 298 298 297 296 296 295 294
273 274 270 270 269 270 271 272 274 276 279 280 282 283 284 286 287 288 289 291 292 293 294 294 294 295 297 298 298 298 298 298 298 299 299 299 298 298 297 297 296 296 295
274 276 276 275 274 274 274 275 277 278 280 282 284 285 286 288 288 289 290 290 292 293 294 294 294 296 298 298 298 298 298 299 299 299 299 299 299 298 298 298 297 296 296
268 273 280 281 279 278 278 278 280 281 283 284 285 286 288 289 290 290 291 292 292 293 293 294 294 294 295 297 298 298 299 299 300 300 300 300 300 300 299 299 298 298 297
275 279 283 283 281 280 280 281 282 283 285 286 286 288 289 290 291 291 291 292 292 293 293 293 293 293 295 297 298 299 300 300 301 301 302 302 302 301 301 300 300 299 299
283 285 286 284 283 282 282 283 284 284 285 286 287 289 290 290 291 291 291 291 290 291 293 293 294 296 298 299 299 300 300 301 302 303 303 304 303 303 302 302 302 301 301
282 284 284 284 284 284 284 284 283 283 284 285 286 288 290 290 290 290 290 290 291 293 294 295 297 299 301 301 301 301 302 303 304 305 305 305 305 304 304 304 303 302 301
280 282 284 285 285 285 284 284 284 284 284 285 286 288 289 289 290 290 290 291 293 295 295 297 300 302 303 302 302 303 304 305 306 306 306 306 306 307 307 306 304 303 303
282 283 284 285 286 286 285 285 284 284 285 285 286 287 287 288 288 289 290 291 293 294 297 300 302 303 302 302 303 304 306 307 307 307 308 309 310 310 310 309 308 307 307
282 283 284 285 285 286 286 285 284 283 284 285 286 286 286 287 287 289 291 293 296 300 303 303 303 303 303 304 305 307 308 308 308 310 312 314 315 314 315 316 315 314 315
283 284 284 285 285 285 285 284 283 282 283 284 286 286 286 286 289 292 296 299 301 303 304 304 304 304 306 307 308 309 310 310 311 313 316 318 319 319 323 326 330 337 349
284 285 285 285 286 284 283 283 284 283 283 284 284 286 288 292 295 298 301 302 303 304 304 305 306 307 307 308 309 311 312 313 315 316 319 322 324 329 338 352 9 21 26
285 286 286 287 287 286 284 284 284 285 285 285 288 291 295 298 300 301 303 304 305 306 306 307 308 309 310 310 312 315 317 318 319 321 325 330 339 355 17 33 41 44 46
287 288 288 289 288 287 284 284 285 287 291 295 298 301 303 304 304 305 306 307 307 308 309 310 311 312 313 314 316 319 321 323 326 331 339 354 16 43 54 56 56 54 52
288 290 290 290 289 289 290 292 295 299 302 303 304 304 305 306 307 308 309 309 310 312 313 315 316 316 317 319 321 323 326 330 338 353 13 41 61 67 66 62 58 56 53
291 292 295 296 297 298 301 304 306 306 307 307 308 309 310 311 312 313 313 313 314 316 317 319 320 320 321 321 323 325 331 341 3 41 68 76 78 73 68 62 59 58 57
296 298 302 305 308 310 310 310 311 312 313 313 314 315 316 317 318 318 319 319 319 321 322 324 324 324 324 325 328 333 346 21 71 91 91 89 81 74 70 65 62 63 68
Height
5857 5852 5850 5851 5852 5852 5852 5851 5849 5849 5848 5846 5845 5843 5841 5839 5838 5836 5834 5832 5830 5828 5825 5824 5821 5819 5816 5813 5811 5808 5805 5802 5798 5796 5793 5791 5787 5783 5779 5775 5771 5768 5764
5852 5848 5845 5845 5845 5846 5846 5845 5844 5843 5841 5840 5838 5836 5834 5832 5831 5829 5827 5825 5823 5820 5818 5816 5814 5811 5807 5805 5802 5799 5795 5791 5787 5784 5781 5778 5776 5770 5765 5761 5757 5753 5749
5845 5841 5838 5840 5840 5839 5838 5838 5837 5835 5834 5832 5831 5828 5826 5824 5823 5821 5819 5817 5815 5812 5810 5808 5805 5801 5798 5795 5792 5788 5784 5780 5775 5771 5767 5764 5761 5757 5751 5745 5741 5737 5732
5836 5835 5834 5833 5832 5832 5831 5830 5829 5828 5826 5824 5823 5820 5817 5815 5814 5812 5810 5808 5805 5803 5800 5798 5795 5791 5787 5784 5779 5775 5771 5767 5762 5757 5753 5749 5745 5741 5738 5732 5725 5720 5715
5829 5827 5827 5826 5825 5824 5823 5822 5821 5819 5818 5816 5814 5811 5808 5806 5804 5802 5800 5797 5795 5793 5790 5788 5785 5780 5776 5772 5767 5762 5758 5753 5748 5743 5738 5733 5729 5725 5721 5717 5711 5705 5698
5820 5819 5819 5818 5817 5816 5815 5814 5812 5811 5809 5807 5805 5802 5799 5797 5795 5793 5790 5787 5785 5783 5780 5777 5773 5768 5764 5759 5754 5750 5744 5739 5734 5729 5724 5719 5713 5708 5704 5700 5695 5689 5683
5812 5811 5811 5810 5809 5807 5806 5805 5803 5802 5800 5798 5796 5793 5791 5788 5786 5783 5781 5777 5774 5772 5770 5765 5761 5756 5751 5746 5741 5736 5731 5726 5720 5715 5709 5704 5698 5692 5687 5682 5677 5672 5667
5805 5804 5802 5801 5800 5799 5797 5796 5795 5793 5792 5790 5787 5785 5782 5779 5776 5773 5771 5767 5763 5761 5758 5753 5748 5743 5738 5733 5728 5723 5717 5712 5707 5701 5695 5690 5683 5677 5670 5664 5658 5654 5650
5796 5795 5793 5792 5791 5790 5789 5788 5787 5785 5783 5781 5778 5776 5773 5770 5767 5764 5761 5757 5753 5749 5746 5741 5736 5731 5725 5720 5714 5709 5703 5698 5692 5686 5680 5674 5668 5661 5654 5647 5640 5634 5631
5788 5786 5785 5785 5784 5782 5781 5779 5778 5776 5774 5772 5769 5766 5764 5761 5757 5754 5750 5746 5742 5737 5733 5728 5723 5717 5712 5706 5701 5695 5690 5684 5678 5672 5665 5658 5651 5644 5637 5629 5622 5615 5609
5779 5777 5776 5777 5776 5774 5772 5770 5769 5767 5764 5762 5759 5757 5753 5750 5747 5743 5739 5734 5730 5725 5720 5715 5709 5703 5698 5692 5687 5681 5676 5670 5663 5657 5650 5643 5635 5628 5620 5612 5605 5597 5589
5771 5770 5769 5769 5767 5765 5763 5761 5760 5757 5755 5752 5749 5746 5743 5739 5735 5731 5727 5722 5717 5712 5706 5700 5695 5689 5684 5679 5673 5668 5662 5656 5649 5642 5634 5627 5619 5611 5603 5595 5587 5579 5572
5762 5762 5761 5760 5758 5756 5754 5752 5750 5747 5744 5741 5738 5735 5731 5727 5723 5718 5714 5709 5703 5698 5692 5686 5681 5675 5670 5665 5660 5654 5648 5641 5634 5627 5619 5611 5603 5595 5586 5578 5570 5563 5556
5751 5752 5752 5751 5749 5747 5745 5742 5739 5736 5733 5730 5726 5723 5719 5715 5710 5705 5700 5695 5690 5684 5678 5672 5666 5661 5657 5652 5646 5640 5634 5627 5620 5612 5604 5595 5587 5579 5570 5563 5556 5549 5543
5744 5743 5742 5740 5738 5736 5733 5731 5728 5724 5721 5717 5714 5710 5706 5702 5697 5692 5687 5681 5676 5670 5664 5658 5653 5648 5644 5639 5632 5627 5620 5613 5606 5597 5589 5580 5572 5563 5556 5550 5544 5538 5533
5736 5733 5731 5729 5727 5724 5721 5719 5715 5712 5708 5705 5701 5697 5693 5689 5684 5679 5674 5668 5662 5656 5651 5646 5641 5636 5631 5625 5619 5613 5606 5599 5591 5583 5575 5566 5559 5552 5545 5540 5534 5530 5526
5726 5723 5720 5717 5714 5712 5709 5706 5703 5699 5696 5693 5689 5685 5681 5677 5672 5666 5661 5656 5650 5644 5639 5634 5629 5624 5618 5612 5606 5599 5592 5585 5577 5570 5562 5555 5548 5542 5537 5531 5527 5523 5519
5715 5711 5708 5705 5703 5700 5697 5694 5690 5687 5684 5681 5677 5673 5669 5665 5660 5654 5649 5643 5638 5633 5628 5622 5616 5612 5607 5600 5594 5586 5579 5572 5565 5558 5552 5546 5540 5534 5529 5525 5522 5519 5516
5703 5700 5697 5694 5690 5687 5685 5682 5679 5676 5673 5670 5666 5662 5658 5653 5648 5642 5637 5631 5626 5620 5615 5610 5605 5600 5594 5588 5581 5574 5567 5561 5555 5549 5544 5539 5534 5529 5525 5522 5519 5517 5515
5692 5689 5685 5682 5679 5677 5674 5671 5668 5666 5663 5659 5655 5651 5646 5641 5636 5630 5625 5620 5615 5609 5604 5599 5594 5588 5582 5576 5569 5563 5558 5553 5547 5543 5538 5534 5530 5527 5523 5520 5518 5516 5515
5681 5678 5675 5672 5670 5667 5665 5662 5659 5656 5653 5649 5644 5640 5634 5629 5625 5619 5614 5609 5604 5599 5594 5588 5583 5577 5571 5565 5560 5555 5551 5546 5542 5538 5534 5531 5528 5525 5523 5520 5519 5517 5516
5671 5669 5666 5664 5661 5659 5656 5653 5650 5647 5643 5638 5634 5629 5624 5619 5615 5610 5604 5599 5593 5588 5583 5578 5572 5567 5562 5557 5552 5549 5545 5541 5538 5535 5532 5530 5528 5526 5523 5522 5520 5519 5518
5664 5662 5659 5657 5654 5652 5649 5646 5642 5639 5634 5629 5625 5620 5615 5610 5605 5600 5595 5589 5584 5579 5574 5569 5564 5559 5555 5551 5547 5544 5541 5538 5535 5533 5531 5530 5528 5527 5525 5524 5522 5521 5520
5658 5655 5653 5651 5648 5645 5642 5638 5634 5630 5626 5622 5617 5612 5607 5601 5596 5590 5585 5580 5575 5570 5565 5561 5557 5553 5549 5546 5543 5541 5538 5536 5535 5533 5532 5531 5530 5529 5527 5526 5525 5524 5523
5653 5651 5648 5646 5643 5640 5636 5633 5629 5624 5620 5615 5610 5604 5599 5593 5587 5582 5576 5572 5567 5563 5559 5555 5551 5548 5545 5543 5541 5538 5537 5535 5534 5534 5533 5532 5532 5531 5530 5529 5528 5526 5525
5649 5647 5645 5642 5639 5636 5632 5628 5623 5619 5613 5608 5602 5596 5590 5585 5579 5574 5569 5564 5561 5557 5554 5550 5547 5545 5543 5540 5539 5537 5536 5536 5535 5535 5535 5535 5534 5533 5532 5531 5530 5529 5528